Regional Weather Roundup
Issued by NWS Upton, NY

Current Version | Previous Version | Text Only | Print | Product List | Glossary Off
Versions: 1 2 3 4 5 6 7 8 9 10 11 12 13 14 15 16 17 18 19 20 21 22 23 24 25 26 27 28
000 ASUS41 KOKX 260509 RWROKX REGIONAL WEATHER ROUNDUP NATIONAL WEATHER SERVICE NEW YORK NY 100 AM EDT TUE SEP 26 2017 NOTE: "FAIR" INDICATES FEW OR NO CLOUDS BELOW 12,000 FEET WITH NO SIGNIFICANT WEATHER AND/OR OBSTRUCTIONS TO VISIBILITY. NYZ071-072-176-178-NJZ106-104-260600- NEW YORK CITY METRO AREA CITY SKY/WX TMP DP RH WIND PRES REMARKS Central Park CLEAR 71 65 81 CALM 30.05F Bronx Bot Gard N/A 66 63 88 CALM 30.03F LaGuardia APRT PTCLDY 71 66 84 SE5 30.02S Kennedy INTL PTCLDY 67 65 93 CALM 30.04S Breezy Point N/A 66 N/A N/A E5 N/A Newark/Liberty PTCLDY 70 66 87 S5 30.03S Teterboro CLEAR 71 65 81 CALM 30.01F $$ NYZ177-179-078>081-260600- LONG ISLAND NEW YORK CITY SKY/WX TMP DP RH WIND PRES REMARKS Jones Beach N/A 68 N/A N/A E3 N/A Matinecock PT N/A 68 N/A N/A SE3 N/A Farmingdale CLOUDY 67 65 93 E3 30.04R MacArthur/ISP CLOUDY 68 67 96 E6 30.04R Shirley CLOUDY 68 67 96 CALM 30.05R FOG Mt Sinai Harb N/A 68 N/A N/A E2 N/A Westhampton FOG 66 64 93 E3 30.06S VSB 1/2 East Hampton CLOUDY 64 64 99 CALM 30.04S FOG Montauk N/A 66 66 100 CALM 30.07R $$ NYZ052-065-067-260600- HUDSON VALLEY CITY SKY/WX TMP DP RH WIND PRES REMARKS White Plains CLEAR 66 63 90 CALM 30.04S Larchmont Harb N/A 68 N/A N/A N1 N/A Croton On Huds N/A 70 N/A N/A NE2 N/A Newburgh CLEAR 70 66 88 CALM 30.05S Montgomery CLEAR 67 65 93 CALM 30.03F Poughkeepsie CLEAR 68 64 87 CALM 30.02S Albany PTCLDY 70 67 90 CALM 30.03R $$ NJZ001-105-106-008-010-013-015-019>022-104-260600- NEW JERSEY CITY SKY/WX TMP DP RH WIND PRES REMARKS Newark/Liberty PTCLDY 70 66 87 S5 30.03S Teterboro CLEAR 71 65 81 CALM 30.01F Caldwell PTCLDY 67 65 93 CALM 30.04S Somerville NOT AVBL Linden FAIR 69 65 88 CALM 30.03S Perth Amboy N/A 68 N/A N/A E9 N/A Sussex PTCLDY 66 66 100 CALM 30.04S FOG Andover N/A 65 64 97 CALM 30.05S Trenton PTCLDY 69 64 84 CALM 30.03R Millville CLOUDY 69 69 100 E6 30.02R Atlantic City CLOUDY 68 67 96 E6 30.02S FOG Wrightstown CLOUDY 67 65 96 CALM 30.02R Toms River LGT RAIN 67 67 100 CALM 30.04S FOG Belmar CLOUDY 68 67 96 E8 30.05R FOG $$ PAZ047>061-062-071-260600- EASTERN PENNSYLVANIA CITY SKY/WX TMP DP RH WIND PRES REMARKS Philadelphia CLOUDY 70 64 81 CALM 30.04R Allentown CLOUDY 73 64 73 E3 30.03F Scranton PTCLDY 72 66 81 E6 30.05S $$ CTZ002-004>006-009-010-012-RIZ004-006-007-MAZ004-011-015-260600- SOUTHERN NEW ENGLAND IN CT CITY SKY/WX TMP DP RH WIND PRES REMARKS Bradley INTL PTCLDY 68 65 90 SE6 30.04F Hartford CLEAR 67 65 93 CALM 30.04F Danbury CLEAR 65 64 97 CALM 30.06S Wtrbury/Oxford CLEAR 63 62 97 CALM 30.07S Norwalk Harbor N/A 70 N/A N/A N5 N/A Bridgeport CLOUDY 71 67 87 NE6 30.03F Meriden CLEAR 62 60 93 CALM 30.05S New Haven CLOUDY 68 66 93 NE3 30.05S Chester FOG 68 66 94 CALM 30.06S VSB 1/2 Groton CLOUDY 67 66 97 SE3 30.04S FOG Wilimantic CLOUDY 68 68 100 CALM 30.06S FOG IN RI CITY SKY/WX TMP DP RH WIND PRES REMARKS Providence CLOUDY 69 69 100 S5 30.06R FOG Block Island FOG 65 64 97 NE3 N/A VSB 1/2 Westerly CLOUDY 67 66 97 CALM 30.06S FOG IN MA CITY SKY/WX TMP DP RH WIND PRES REMARKS Boston FOG 65 65 100 E5 30.05R VSB 1/4 Worcester CLEAR 66 62 87 W6 30.07F Westfield CLEAR 68 64 87 S3 30.04S Provincetown CLOUDY 63 61 94 E3 30.06S FOG Nantucket FOG 65 65 100 E8 30.03F VSB 1/2 $$ ANZ330-335-338-340-345-350-353-355-260600- COASTAL MARINE OBSERVATIONS STATION/POSITION TIME SKY/WX TEMP WIND PRES VSBY WAVE AIR SEA DIR/SP/G HT/PER (UTC) (F) (DEG/KT/KT) (MB) (MI) (FT/S) NY HARB ENTRANCE 0350 67 71 60/ 8/ 10 1016.1 4/14 20 S FIRE ISLAND 0350 65 68 70/ 8/ 10 1017.0 6/15 GREAT SOUTH BAY 0430 67 73 CALM N/A 23 SSW MONTAUK P 0350 63 65 1017.7 7/14 15 E BARNEGAT LI 0430 70 N/A 5/14 HUDSON CANYON 0350 67 69 110/ 8/ 10 1016.1 9/14 KINGS POINT 0430 68 72 120/ 3/ 4 1017.4 EXECUTION ROCKS 0445 70 150/ 4/ 4 N/A WESTERN LI SOUND NOT AVBL CENTRAL LI SOUND 0445 68 70/ 4/ 6 N/A 1 EASTERN LI SOUND NOT AVBL ROBBINS REEF 0430 70 140/ 1/ 2 1017.3 $$ >>>>>>>>>>>>>>>>>>>>>>>>>>>> KEY <<<<<<<<<<<<<<<<<<<<<<<<<<< > < > SKY/WX - Sky Condition/Present Weather < > TMP - Temperature in Fahrenheit < > DP - Dew Point in Fahrenheit < > RH - Relative Humidity in Percent < > WIND - Direction (from) and Speed in MPH < > PRES - Mean Sea Level Pressure (inches of Hg) < > WCI - Wind Chill Index < > VSB - VISIBILITY IN MILES < > HX - HEAT INDEX < > TC - TEMPERATURE IN CELSIUS < > VRB - VARIABLE WIND DIRECTION < > < >>>>>>>>>>>>>>>>>>>>>>>>>>>> KEY <<<<<<<<<<<<<<<<<<<<<<<<<<<

USA.gov is the U.S. government's official web portal to all federal, state and local government web resources and services.